Location: Unspecified
(51.0459°N, 0.0000°E)
Time: 10:51:12
(UTC+00:00)

N. Korean satellite - Visible Passes

Search period start: 15 October 2019 00:00
Search period end: 25 October 2019 00:00
Orbit: 455 x 508 km, 97.2° (Epoch: 14 October)

Date Brightness Start Highest point End Pass type
(mag) Time Alt. Az. Time Alt. Az. Time Alt. Az.
15 Oct 9.2 05:21:14 10° NE 05:24:16 26° E 05:27:19 10° SSE visible
16 Oct 10.1 04:56:44 10° NE 04:58:47 14° E 05:00:49 10° SE visible
17 Oct 10.4 18:20:01 10° WSW 18:21:09 11° W 18:22:17 10° WNW visible
18 Oct 8.2 05:38:27 10° NNE 05:41:52 40° E 05:45:18 10° S visible
18 Oct 9.6 17:52:57 10° SW 17:55:36 21° W 17:58:16 10° NW visible
19 Oct 9.5 05:13:34 10° NE 05:16:26 22° E 05:19:19 10° SE visible
19 Oct 8.2 17:26:54 10° SSW 17:30:08 39° W 17:33:26 10° NNW visible
20 Oct 10.3 04:49:22 10° ENE 04:50:55 12° E 04:52:28 10° ESE visible
21 Oct 7.1 05:55:49 10° NNE 05:59:24 65° ESE 06:03:02 10° S visible
21 Oct 10.1 18:11:23 10° WSW 18:13:13 14° W 18:15:04 10° WNW visible
22 Oct 8.6 05:30:42 10° NNE 05:34:02 33° E 05:37:23 10° SSE visible
22 Oct 9.2 17:44:48 10° SSW 17:47:42 25° W 17:50:38 10° NW visible
23 Oct 9.8 05:05:55 10° NE 05:08:34 19° E 05:11:12 10° SE visible
24 Oct 10.5 04:42:22 10° ENE 04:43:00 10° E 04:43:37 10° E visible
